sat.trackr.live / text

‹ back to catalog

STARLINK-34691

NORAD 65691 · 2025-212R

PAYLOAD ACTIVE UNKNOWN

§ Identity

Operator
Country
US
Launch date
2025-09-21
Launch site
AFETR
Launch vehicle
Mass (kg)
RCS (m²)

Purposes: comms

External: N2YO · Heavens-Above · Gunter

§ Orbital elements

Epoch: 2026-09-20T23:28:08.012064Z

Period
93.85 min
Inclination
53.1567°
Eccentricity
0.0000765
Mean motion
15.34400114 rev/d
Perigee alt
462.2 km
Apogee alt
463.2 km
Semi-major
6,840.8 km
B*
4.3254e-4
RAAN
147.1259°
Arg perigee
48.2630°
Mean anomaly
311.8438°
Rev number
5,730

§ Raw data

STARLINK-346911 65691U 25212R   26263.97787051  .00014266  00000+0  43254-3 0  99912 65691  53.1567 147.1259 0000765  48.2630 311.8438 15.34400114 57302

JSON: /api/v1/satellites/65691 · /tle

For live sub-satellite position, see the globe view (requires WebGL).

§ Visibility from observer

Set your observer location to see the next 7 days of passes ≥ 10°. The values pass through the URL so the page stays shareable.

No JS? Fill the form by hand. The geolocation button needs JavaScript.